EN

Hourly Weather Dzierzno

Today, 28 October, Wednesday

Time Temperature Precipitation Wind Pressure Humidity
00:00 +12°C° 0 mm 1 mps 734 mmHg 88%
01:00 +11°C° 0 mm 1 mps 735 mmHg 88%
02:00 +11°C° 0 mm 1 mps 735 mmHg 89%
03:00 +11°C° 0 mm 1 mps 734 mmHg 89%
04:00 +9°C° 0 mm 0 mps 734 mmHg 90%
05:00 +10°C° 0 mm 1 mps 734 mmHg 89%
06:00 +10°C° 0 mm 1 mps 735 mmHg 89%
07:00 +9°C° 0 mm 2 mps 735 mmHg 89%
08:00 +12°C° 0 mm 2 mps 735 mmHg 85%
09:00 +12°C° 0 mm 3 mps 735 mmHg 81%
10:00 +13°C° 0 mm 3 mps 735 mmHg 77%
11:00 +14°C° 0 mm 4 mps 735 mmHg 74%
12:00 +14°C° 0 mm 4 mps 735 mmHg 70%
13:00 +15°C° 0 mm 4 mps 734 mmHg 67%
14:00 +14°C° 0 mm 4 mps 734 mmHg 69%
15:00 +14°C° 0 mm 4 mps 735 mmHg 70%
16:00 +13°C° 0 mm 3 mps 735 mmHg 72%
17:00 +12°C° 0 mm 3 mps 735 mmHg 73%
18:00 +12°C° 0 mm 4 mps 735 mmHg 74%
19:00 +11°C° 0 mm 4 mps 735 mmHg 74%
20:00 +11°C° 0 mm 4 mps 735 mmHg 73%
21:00 +11°C° 0 mm 4 mps 736 mmHg 73%
22:00 +11°C° 0 mm 4 mps 736 mmHg 72%
23:00 +10°C° 0 mm 3 mps 736 mmHg 74%

Tomorrow, 29 October, Thursday

Time Temperature Precipitation Wind Pressure Humidity
00:00 +10°C° 0 mm 3 mps 736 mmHg 77%
01:00 +9°C° 0 mm 3 mps 736 mmHg 79%
02:00 +9°C° 0 mm 3 mps 736 mmHg 81%
03:00 +9°C° 0 mm 3 mps 736 mmHg 82%
04:00 +8°C° 0 mm 3 mps 736 mmHg 84%
05:00 +9°C° 0 mm 3 mps 736 mmHg 82%
06:00 +9°C° 0 mm 3 mps 736 mmHg 81%
07:00 +9°C° 0 mm 3 mps 736 mmHg 79%
08:00 +9°C° 0 mm 3 mps 736 mmHg 76%
09:00 +10°C° 0 mm 4 mps 736 mmHg 72%
10:00 +11°C° 0 mm 4 mps 735 mmHg 69%
11:00 +11°C° 0 mm 4 mps 735 mmHg 69%
12:00 +12°C° 0 mm 5 mps 735 mmHg 68%
13:00 +12°C° 0 mm 5 mps 735 mmHg 68%
14:00 +10°C° 0.1 mm 5 mps 735 mmHg 72%
15:00 +10°C° 0.1 mm 5 mps 734 mmHg 76%
16:00 +9°C° 0.1 mm 5 mps 734 mmHg 79%
17:00 +9°C° 0.5 mm 6 mps 735 mmHg 79%
18:00 +8°C° 0.5 mm 6 mps 735 mmHg 79%
19:00 +8°C° 0.5 mm 7 mps 736 mmHg 78%
20:00 +7°C° 0 mm 6 mps 736 mmHg 80%
21:00 +7°C° 0 mm 5 mps 737 mmHg 82%
22:00 +6°C° 0 mm 5 mps 737 mmHg 84%
23:00 +6°C° 0 mm 5 mps 737 mmHg 85%

Day after tomorrow, 30 October, Friday

Time Temperature Precipitation Wind Pressure Humidity
00:00 +5°C° 0 mm 4 mps 738 mmHg 86%
01:00 +5°C° 0 mm 4 mps 738 mmHg 87%
02:00 +4°C° 0 mm 4 mps 738 mmHg 87%
03:00 +4°C° 0 mm 4 mps 739 mmHg 88%
04:00 +4°C° 0 mm 3 mps 739 mmHg 88%
05:00 +4°C° 0 mm 3 mps 739 mmHg 87%
06:00 +4°C° 0 mm 3 mps 739 mmHg 86%
07:00 +4°C° 0 mm 3 mps 739 mmHg 86%
08:00 +5°C° 0 mm 3 mps 739 mmHg 79%
09:00 +6°C° 0 mm 4 mps 739 mmHg 73%
10:00 +7°C° 0 mm 4 mps 739 mmHg 66%
11:00 +7°C° 0.1 mm 4 mps 738 mmHg 70%
12:00 +7°C° 0.1 mm 4 mps 738 mmHg 75%
13:00 +7°C° 0.1 mm 5 mps 737 mmHg 79%
14:00 +7°C° 0.9 mm 5 mps 737 mmHg 83%
15:00 +7°C° 0.9 mm 5 mps 737 mmHg 88%
16:00 +7°C° 0.9 mm 5 mps 736 mmHg 92%
17:00 +7°C° 1.5 mm 5 mps 736 mmHg 93%
18:00 +8°C° 1.5 mm 6 mps 736 mmHg 94%
19:00 +9°C° 1.5 mm 6 mps 736 mmHg 94%
20:00 +9°C° 0.6 mm 6 mps 736 mmHg 94%
21:00 +9°C° 0.6 mm 6 mps 736 mmHg 94%
22:00 +10°C° 0.6 mm 7 mps 736 mmHg 93%
23:00 +10°C° 0.7 mm 6 mps 736 mmHg 94%

31 October, Saturday

Time Temperature Precipitation Wind Pressure Humidity
00:00 +10°C° 0.7 mm 5 mps 736 mmHg 94%
01:00 +10°C° 0.7 mm 5 mps 737 mmHg 95%
02:00 +10°C° 0.5 mm 4 mps 737 mmHg 94%
03:00 +10°C° 0.5 mm 3 mps 738 mmHg 94%
04:00 +9°C° 0.5 mm 3 mps 738 mmHg 93%
05:00 +8°C° 0 mm 3 mps 739 mmHg 91%
06:00 +8°C° 0 mm 3 mps 739 mmHg 90%
07:00 +7°C° 0 mm 3 mps 740 mmHg 89%
08:00 +8°C° 0 mm 3 mps 740 mmHg 85%
09:00 +8°C° 0 mm 3 mps 741 mmHg 82%
10:00 +8°C° 0 mm 3 mps 742 mmHg 78%
11:00 +9°C° 0 mm 3 mps 742 mmHg 74%
12:00 +10°C° 0 mm 3 mps 742 mmHg 69%
13:00 +11°C° 0 mm 3 mps 742 mmHg 65%
14:00 +10°C° 0 mm 2 mps 742 mmHg 67%
15:00 +10°C° 0 mm 2 mps 742 mmHg 69%
16:00 +9°C° 0 mm 2 mps 742 mmHg 72%
17:00 +8°C° 0 mm 2 mps 742 mmHg 74%
18:00 +8°C° 0 mm 2 mps 743 mmHg 77%
19:00 +7°C° 0 mm 2 mps 743 mmHg 80%
20:00 +7°C° 0 mm 2 mps 743 mmHg 80%
21:00 +5°C° 0 mm 3 mps 743 mmHg 81%
22:00 +5°C° 0 mm 3 mps 743 mmHg 82%
23:00 +5°C° 0 mm 3 mps 743 mmHg 83%

1 November, Sunday

Time Temperature Precipitation Wind Pressure Humidity
00:00 +5°C° 0 mm 3 mps 743 mmHg 84%
01:00 +4°C° 0 mm 3 mps 743 mmHg 85%
02:00 +4°C° 0 mm 3 mps 743 mmHg 85%
03:00 +4°C° 0 mm 3 mps 742 mmHg 84%
04:00 +4°C° 0 mm 3 mps 742 mmHg 84%
05:00 +4°C° 0 mm 3 mps 742 mmHg 82%
06:00 +4°C° 0 mm 3 mps 742 mmHg 80%
07:00 +4°C° 0 mm 3 mps 742 mmHg 78%
08:00 +5°C° 0 mm 3 mps 742 mmHg 73%
09:00 +7°C° 0 mm 3 mps 742 mmHg 68%
10:00 +9°C° 0 mm 3 mps 742 mmHg 63%
11:00 +10°C° 0 mm 3 mps 741 mmHg 61%
12:00 +11°C° 0 mm 3 mps 741 mmHg 59%
13:00 +12°C° 0 mm 3 mps 741 mmHg 56%
14:00 +11°C° 0 mm 3 mps 741 mmHg 60%
15:00 +11°C° 0 mm 3 mps 740 mmHg 63%
16:00 +10°C° 0 mm 3 mps 740 mmHg 67%
17:00 +9°C° 0 mm 3 mps 740 mmHg 68%
18:00 +9°C° 0 mm 3 mps 740 mmHg 69%
19:00 +8°C° 0 mm 3 mps 740 mmHg 70%
20:00 +8°C° 0 mm 3 mps 740 mmHg 70%
21:00 +8°C° 0 mm 3 mps 740 mmHg 71%
22:00 +8°C° 0 mm 3 mps 740 mmHg 71%
23:00 +8°C° 0 mm 3 mps 740 mmHg 72%

2 November, Monday

Time Temperature Precipitation Wind Pressure Humidity
00:00 +7°C° 0 mm 3 mps 740 mmHg 72%
01:00 +6°C° 0 mm 4 mps 740 mmHg 72%
02:00 +6°C° 0 mm 4 mps 740 mmHg 72%
03:00 +6°C° 0 mm 4 mps 740 mmHg 73%
04:00 +6°C° 0 mm 4 mps 740 mmHg 73%
05:00 +6°C° 0 mm 4 mps 740 mmHg 74%
06:00 +6°C° 0 mm 4 mps 740 mmHg 75%
07:00 +6°C° 0 mm 4 mps 740 mmHg 76%
08:00 +7°C° 0 mm 4 mps 740 mmHg 72%
09:00 +9°C° 0 mm 5 mps 740 mmHg 68%
10:00 +10°C° 0 mm 5 mps 740 mmHg 65%
11:00 +12°C° 0 mm 5 mps 740 mmHg 63%
12:00 +13°C° 0 mm 5 mps 740 mmHg 62%
13:00 +14°C° 0 mm 4 mps 740 mmHg 60%
14:00 +13°C° 0 mm 4 mps 740 mmHg 64%
15:00 +12°C° 0 mm 4 mps 740 mmHg 67%
16:00 +12°C° 0 mm 3 mps 740 mmHg 70%
17:00 +11°C° 0 mm 3 mps 740 mmHg 71%
18:00 +11°C° 0 mm 3 mps 740 mmHg 72%
19:00 +11°C° 0 mm 3 mps 740 mmHg 73%
20:00 +10°C° 0 mm 3 mps 740 mmHg 73%
21:00 +10°C° 0 mm 3 mps 740 mmHg 73%
22:00 +10°C° 0 mm 3 mps 740 mmHg 74%
23:00 +10°C° 0 mm 3 mps 740 mmHg 73%
Show more